Погода Нижний Тагил

Погода Нижний Тагил : погода сейчас, прогноз погоды и архив. Всё, что Вы хотите узнать о погоде Нижний Тагил!

Хотите узнать прогноз погоды Нижний Тагил? Тогда Вам сюда: Погода Нижний Тагил

Поиск расширенной информации на нашем сайте:

Другие новости

Новости СМИ2

Главная страница сайта

Новости сайта

02.10.2013

Напоминаем, что на нашем новом сайте вы можете получить высокодетализированные прогнозы погоды по пунктам России, СНГ и мира (включающие важные для авиации метеовеличины, такие как направление и скорость ветра, видимость, явления погоды, количество и форма облачности, нижняя и верхняя граница облачности), а также ознакомиться с разнообразными материалами по авиационной метеорологии и подборкой полезных ссылок на эту тему.

Сайт Метеоцентр.Азия посвящён разработке технологий оптимизации авиаметеорологического обслуживания, включая проектирование и перспективное создание нескольких автоматизированных авиаметеорологических систем:
- система выпуска высокодетальных прогностических карт явлений погоды для нижнего воздушного пространства по России и ближнему зарубежью;
- система верификации прогнозов TAF (выпускаемых синоптиками официальных АМСГ РФ и ближнего зарубежья) и AUTOTAF (выпускаемых сайтом Метеоцентр.Азия) - выявление ошибок, онлайн-сопоставление с фактической погодой METAR, автоматическое внесение коррективов в прогнозы при резком отклонении фактической погоды от прогноза, подсчёт оправдываемости прогнозов по элементам и в целом;
- система обработки, анализа и отображения авиаметеорологической информации для применения провайдерами метеорологической информации.

Рекомендуем: Сравнить цены на лазерная гравировка.

Погода Нижний Тагил - сегодня

Время (UTC), дата Ветер
(°,м/с) 
Видим.   Явления Облачность Т
(°С)
Тd
(°С)
f(%) Тe
(°С)
Pmin
(гПа)
dP
(гПа)
Po
(мм)
O2
(г/м3)
Тmin Tmax R s Состояние
почвы
18 08.02.16 тихо ()   20000 м    3/0 средняя 
[Ac trans]
-16.2 -18.2 85 -16  1024.8  1.2  743  320           
21 08.02.16 090 (В) 20000 м    ясно 
-19.1 -21.3 83 -19  1026.2  743  324           
00 09.02.16 110 (В) 20000 м    4/0 средняя 
[Ac lent]
-21 -23.6 80 -21  1027.4  0.8  744  326           
03 09.02.16 140 (ЮВ) 20000 м    10/0 средняя 
[Ac As]
-18.2 -20.3 84 -18  1028.1  1.1  745  323  -21.8      44  равномерный
сухой снег
100% 
06 09.02.16 210 (ЮЗ) 20000 м    10/0 средняя 
[Ac lent]
-11.9 -13.5 88 -12  1027.5  0.3  745  315           
09 09.02.16 190 (Ю) 20000 м    3/0 верхняя 
[Cs]
-7.8 -11.3 76 -9  1026.9  0.1  745  310           
12 09.02.16 180 (Ю) 20000 м    6/0 средняя 
[Ac As]
-7.4 -11.3 74 -7  1026.3  -0.5  745  309           
15 09.02.16 190 (Ю) 20000 м    10/0 средняя 
[Ac As]
-6.7 -9.8 79 -9  1025.7  -0.5  744  308    -6.7       
18 09.02.16 190 (Ю) 20000 м    10/0 средняя 
[Sc|Ac As]
-6 -8.6 82 -9  1024.6  -1  743  307           
21 09.02.16 210 (ЮЗ) 4000 м  слаб. снег  10/8 600 м средняя 
[Sc|As op]
-5.5 -6.8 91 -7  1023.8  -0.7  743  306           
00 10.02.16 240 (ЮЗ) 20000 м  {снег}  10/6 600 м средняя 
[Sc|Ac As]
-4.5 -6.8 84 -8  1023.3  -0.3  743  305           
03 10.02.16 240 (ЮЗ) 6-12{12}  20000 м    4/3 600 м средняя 
[Sc|Ac As]
-4.7 -8.2 76 -9  1023  -0.4  742  305  -6.7    0.3  44  равномерный
сухой снег
100% 
06 10.02.16 260 (З) 6{12}  20000 м  позёмок  9/3 600 м средняя 
[Sc|Ac lent]
-4.8 -9.3 71 -9  1024  743  306  -5.1         
09 10.02.16 240 (ЮЗ) 3{10}  20000 м  позёмок  8/0 средняя, верхняя 
[Ac lent|Ci fib]
-2.7 -10.3 56 -5  1023.7  0.1  743  303           
12 10.02.16 240 (ЮЗ) 20000 м    6/3 600 м средняя 
[Sc|Ac lent]
-1.5 -8.7 58 -4  1023.7  0.2  743  302           
15 10.02.16 260 (З) 7-13{13}  20000 м  позёмок  3/0 средняя 
[Ac lent]
-3.1 -8.5 66 -8  1025.6  1.6  744  304    -1.5       
18 10.02.16 260 (З) 7-12{14}  20000 м  позёмок  4/0 средняя 
[Ac lent]
-4.6 -8.5 74 -9  1026.6  0.8  745  306           
21 10.02.16 260 (З) 5{13}  20000 м  позёмок  ясно 
-4.4 -6.9 83 -8  1026.9  0.3  745  306           
00 11.02.16 260 (З) 20000 м    ясно 
-4.2 -7.5 78 -6  1027.7  0.3  746  306           
03 11.02.16 250 (З) 4{10}  20000 м  позёмок  6/0 средняя 
[Ac lent]
-3.9 -6.1 85 -7  1028.9  1.2  747  306  -4.8      42  равномерный
мокрый или
старый снег
100% 
06 11.02.16 270 (З) 5{10}  20000 м  позёмок  10/5 600 м средняя 
[Sc|Ac As]
-3.1 -5.3 85 -7  1029.9  748  305           
09 11.02.16 270 (З) 6{11}  20000 м  позёмок  10/8 600 м средняя 
[Sc|Ac As]
-2.3 -5.1 81 -6  1030.6  0.8  748  305           
12 11.02.16 260 (З) 20000 м    10/6 600 м средняя 
[Sc|Ac As]
-2.8 -5.5 82 -6  1031.6  0.8  749  305           
15 11.02.16 270 (З) 3{10}  20000 м    10/8 600 м средняя 
[Sc|Ac As]
-4 -6.2 85 -6  1032.5  0.7  749  307    -2.2       
18 11.02.16 270 (З) 20000 м    10/10 600 м 
[Sc]
-5.3 -8.9 76 -8  1032.8  0.1  749  309           
Время (UTC), дата Ветер
(°,м/с) 
Видим.   Явления Облачность Т
(°С)
Тd
(°С)
f(%) Тe
(°С)
Pmin
(гПа)
dP
(гПа)
Po
(мм)
O2
(г/м3)
Тmin Tmax R s Состояние
почвы

Для получения пояснительной информации подведите курсор к названию столбца.

ПОГОДА Нижний Тагил - архив

Всё, что Вы хотите узнать о погоде Нижний Тагил - удобно и подробно!

Выберите нужную дату (начиная с 1 января 2013* года) и нажмите кнопку "Найти".
Будут отображены архивные сводки погоды по пункту Нижний Тагил, начиная с указанной даты.


Отображать данные в формате CSV (для использования в таблицах Excel)


Внимание! Наш архив погоды предназначен исключительно для личного некоммерческого использования в познавательных целях. Если Вам необходимы официальные справки о состоянии погоды (для производственных, юридических, коммерческих и т.п. целей), обращайтесь в органы Росгидромета.

*Примечание: данная дата относится к архиву по метеостанциям СССР (Россия, СНГ, Балтия).
Архив по метеостанциям Зарубежной Европы и Азии (кроме Китая) хранится 10 дней, по другим регионам земного шара (Китай, Африка, Америка, Австралия, Океания) - 1 день.

Нижний Тагил - район местоположения метеостанции


Название, широта, долгота, высота метеостанции:
Нижний Тагил 57.9°ш. 60.1°д. 260 м над ур. моря [Российская Федерация]

Дополнительная информация

В oтличие oт бoльшинства пoгoдных сайтoв мы публикуем пoдрoбную метеoинфoрмацию в детальнoм прoфессиoнальнoм фoрмате.

Характеристики температуры и влажнoсти вoздуха измеряются на высoте 2 м в тени вдали oт зданий и деревьев.
Скoрoсть ветра измеряется на высoте 10 м (на урoвне рoста челoвека скoрoсть ветра ниже в 1.5-2 раза). Если метеoстанция нахoдится в гoрoде или в лесу, тo скoрoсть ветра занижена на 2-4 м/с пo сравнению с oткрытым местoм. Скoрoсть ветра над акватoриями крупных рек и oзёр, а также на вершинах хoлмoв на 2-5 м/с выше, чем в oбычных услoвиях.
Атмoсфернoе давление в разных тoчках местнoсти мoжет значительнo oтличаться oт давления на метеoстанции, в зависимoсти oт услoвий рельефа (при пoдъёме на 10 м давление пoнижается примернo на 1 мм рт.ст.).